Date String (YYYY-MM-DD hh:mm:ss) UTC,Instrument flags,absolute air pressure of the measurement (hPa),sample flow rate (lpm),inlet stack bypass flow (lpm),air temperature of the measurement (°C),ambient temperature measured by the external sensor (°C),aerosol sample conditioner tube jacket temperature (°C),OPC LED temperature (°C),internal box temperature (°C),relative humidity of the measurement (%),span deviation,mass concentration of particles derived from Lorenz-Mie calculation of OPC scattering (μg/m³),mass concentration of particles derived from Lorenz-Mie calculation of OPC scattering (μg/m³),mass concentration of particles derived from Lorenz-Mie calculation of OPC scattering (μg/m³)
DateTimeUTC,F1_M11,P_M11,Q1_M11,Q2_M11,T1_M11,T2_M11,T3_M11,T4_M11,T5_M11,U1_M11,ZSPAN_M11,X0_M11,X2_M11,X1_M11
2023-07-14 21:00:00,SystemResetWarning,0833.2,5.01,000.00,029.3,025.1,000.0,037.4,030.1,33.6,-000.3,0018.86,0008.14,0006.75
2023-07-14 21:01:00,SystemResetWarning,0833.2,5.00,000.00,029.2,025.6,000.0,037.5,030.2,32.2,-000.5,0018.58,0008.15,0006.75
2023-07-14 21:02:00,SystemResetWarning,0833.2,5.00,000.00,029.2,026.1,000.0,037.5,030.3,32.6,-000.8,0018.08,0008.07,0006.75
2023-07-14 21:03:00,SystemResetWarning,0833.2,5.00,000.00,029.2,026.5,000.0,037.5,030.4,32.9,-000.9,0017.10,0008.09,0006.74
2023-07-14 21:04:00,SystemResetWarning,0833.2,5.00,000.00,029.3,026.9,000.0,037.5,030.5,32.1,-001.1,0017.18,0008.07,0006.74
2023-07-14 21:05:00,SystemResetWarning,0833.2,5.00,000.00,029.3,027.2,000.0,037.6,030.6,33.2,-001.1,0017.27,0008.05,0006.72
2023-07-14 21:06:00,SystemResetWarning,0833.2,5.00,000.00,029.3,027.5,000.0,037.6,030.7,32.2,-001.0,0017.44,0008.08,0006.73
2023-07-14 21:07:00,SystemResetWarning,0833.2,5.00,000.00,029.4,027.7,000.0,037.6,030.8,32.2,-000.9,0017.73,0008.11,0006.72
2023-07-14 21:08:00,SystemResetWarning,0833.2,4.98,000.00,029.4,026.7,000.0,037.5,030.7,31.8,-001.2,0018.11,0008.11,0006.71
2023-07-14 21:09:00,SystemResetWarning,0833.1,5.01,000.00,029.3,025.2,000.0,037.4,030.4,31.9,-001.1,0018.18,0008.05,0006.68
2023-07-14 21:10:00,SystemResetWarning,0833.1,5.01,000.00,029.2,024.8,000.0,037.3,030.2,32.0,-001.3,0017.80,0007.99,0006.65
2023-07-14 21:11:00,SystemResetWarning,0833.3,4.98,000.00,029.1,024.9,000.0,037.3,030.0,32.1,-001.1,0017.75,0007.97,0006.65
2023-07-14 21:12:00,SystemResetWarning,0833.0,5.00,000.00,029.0,025.4,000.0,037.4,030.1,32.3,-001.1,0017.47,0007.96,0006.65
2023-07-14 21:13:00,SystemResetWarning,0833.1,5.00,000.00,029.0,025.9,000.0,037.4,030.2,32.5,-000.4,0017.21,0008.03,0006.64
2023-07-14 21:14:00,SystemResetWarning,0833.3,5.01,000.00,029.0,026.3,000.0,037.4,030.4,32.2,0000.8,0017.08,0008.06,0006.65
2023-07-14 21:15:00,SystemResetWarning,0833.2,5.00,000.00,029.1,026.7,000.0,037.4,030.5,32.6,0001.4,0016.81,0008.10,0006.65
2023-07-14 21:16:00,SystemResetWarning,0833.4,4.99,000.00,029.1,027.1,000.0,037.4,030.6,32.2,0001.8,0017.15,0008.15,0006.65
2023-07-14 21:17:00,SystemResetWarning,0833.3,4.99,000.00,029.1,027.4,000.0,037.5,030.7,32.2,0002.3,0017.73,0008.13,0006.66
2023-07-14 21:18:00,SystemResetWarning,0833.0,5.00,000.00,029.2,027.6,000.0,037.5,030.7,32.3,0001.8,0018.58,0008.13,0006.65
2023-07-14 21:19:00,SystemResetWarning,0833.2,5.00,000.00,029.2,027.7,000.0,037.5,030.8,32.4,0001.8,0018.44,0008.07,0006.66
2023-07-14 21:20:00,SystemResetWarning,0833.3,4.99,000.00,029.2,026.4,000.0,037.4,030.7,32.6,0002.2,0018.93,0008.10,0006.67
2023-07-14 21:21:00,SystemResetWarning,0833.1,5.00,000.00,029.2,025.0,000.0,037.3,030.4,32.3,0002.5,0018.87,0008.09,0006.67
2023-07-14 21:22:00,SystemResetWarning,0833.1,5.01,000.00,029.1,024.8,000.0,037.2,030.2,32.4,0002.1,0018.88,0008.06,0006.67
2023-07-14 21:23:00,SystemResetWarning,0833.0,5.02,000.00,029.0,025.1,000.0,037.3,030.1,32.5,0001.9,0019.14,0008.07,0006.65
2023-07-14 21:24:00,SystemResetWarning,0833.2,5.00,000.00,028.9,025.6,000.0,037.3,030.2,32.7,0001.7,0019.29,0008.02,0006.64
2023-07-14 21:25:00,SystemResetWarning,0833.1,5.00,000.00,028.9,026.1,000.0,037.3,030.3,32.8,0001.0,0019.06,0007.96,0006.63
2023-07-14 21:26:00,SystemResetWarning,0833.0,5.00,000.00,028.9,026.5,000.0,037.3,030.4,33.1,0000.5,0018.58,0007.89,0006.64
2023-07-14 21:27:00,SystemResetWarning,0833.0,5.01,000.00,029.0,026.9,000.0,037.4,030.5,32.8,0000.0,0019.25,0007.85,0006.63
2023-07-14 21:28:00,SystemResetWarning,0833.0,5.00,000.00,029.0,027.3,000.0,037.4,030.6,32.8,0000.1,0018.57,0007.80,0006.62
2023-07-14 21:29:00,SystemResetWarning,0833.0,5.00,000.00,029.1,027.5,000.0,037.4,030.7,33.5,0000.3,0017.49,0007.81,0006.61
2023-07-14 21:30:00,SystemResetWarning,0833.0,4.99,000.00,029.1,027.7,000.0,037.4,030.8,33.6,0000.2,0017.83,0007.83,0006.59
2023-07-14 21:31:00,SystemResetWarning,0833.1,4.98,000.00,029.1,026.7,000.0,037.3,030.7,33.2,0000.1,0017.81,0007.83,0006.57
2023-07-14 21:32:00,SystemResetWarning,0832.9,5.01,000.00,029.1,025.2,000.0,037.2,030.4,33.1,0000.1,0017.81,0007.82,0006.56
2023-07-14 21:33:00,SystemResetWarning,0833.2,5.00,000.00,029.0,024.8,000.0,037.2,030.2,33.1,0000.5,0017.78,0007.86,0006.55
2023-07-14 21:34:00,SystemResetWarning,0833.1,5.01,000.00,028.9,025.0,000.0,037.2,030.1,33.2,0000.9,0017.85,0007.85,0006.55
2023-07-14 21:35:00,SystemResetWarning,0833.0,5.00,000.00,028.9,025.5,000.0,037.2,030.1,33.5,0001.4,0017.82,0007.85,0006.57
2023-07-14 21:36:00,SystemResetWarning,0833.2,5.00,000.00,028.9,025.9,000.0,037.2,030.2,33.4,0001.4,0017.97,0007.86,0006.58
2023-07-14 21:37:00,SystemResetWarning,0833.3,4.99,000.00,028.9,026.4,000.0,037.3,030.4,33.6,0001.2,0019.05,0007.92,0006.59
2023-07-14 21:38:00,SystemResetWarning,0833.1,4.99,000.00,028.9,026.8,000.0,037.3,030.5,33.5,0001.8,0018.55,0007.94,0006.59
2023-07-14 21:39:00,SystemResetWarning,0833.2,5.01,000.00,028.9,027.1,000.0,037.3,030.5,33.2,0001.8,0018.79,0007.95,0006.60
2023-07-14 21:40:00,SystemResetWarning,0833.3,5.01,000.00,029.0,027.4,000.0,037.3,030.6,32.6,0001.3,0019.15,0007.96,0006.60
2023-07-14 21:41:00,SystemResetWarning,0833.3,5.00,000.00,029.0,027.7,000.0,037.3,030.7,32.4,0001.0,0018.90,0007.97,0006.62
2023-07-14 21:42:00,SystemResetWarning,0832.8,4.98,000.00,029.1,027.0,000.0,037.3,030.7,32.5,0000.9,0018.57,0007.93,0006.65
2023-07-14 21:43:00,SystemResetWarning,0832.9,5.00,000.00,029.0,025.4,000.0,037.2,030.4,32.8,0000.7,0018.98,0007.96,0006.67
2023-07-14 21:44:00,SystemResetWarning,0832.8,5.00,000.00,028.9,024.8,000.0,037.1,030.2,33.4,0000.5,0019.34,0007.96,0006.69
2023-07-14 21:45:00,SystemResetWarning,0832.8,5.01,000.00,028.8,024.9,000.0,037.1,030.0,34.4,0000.3,0019.32,0007.94,0006.70
2023-07-14 21:46:00,SystemResetWarning,0832.8,5.01,000.00,028.8,025.4,000.0,037.1,030.1,34.5,-000.3,0019.46,0007.92,0006.69
2023-07-14 21:47:00,SystemResetWarning,0832.7,5.00,000.00,028.8,025.9,000.0,037.2,030.2,33.5,-000.5,0020.14,0007.94,0006.69
2023-07-14 21:48:00,SystemResetWarning,0832.8,5.00,000.00,028.8,026.3,000.0,037.2,030.3,33.0,-000.1,0020.07,0007.91,0006.68
2023-07-14 21:49:00,SystemResetWarning,0832.7,5.00,000.00,028.8,026.7,000.0,037.2,030.4,33.2,-000.2,0020.59,0007.95,0006.67
2023-07-14 21:50:00,SystemResetWarning,0832.7,5.00,000.00,028.9,027.1,000.0,037.2,030.5,32.9,-000.5,0020.52,0007.99,0006.67
2023-07-14 21:51:00,SystemResetWarning,0832.8,5.00,000.00,028.9,027.4,000.0,037.3,030.6,33.5,-000.2,0021.00,0008.02,0006.67
2023-07-14 21:52:00,SystemResetWarning,0832.8,5.00,000.00,029.0,027.6,000.0,037.3,030.7,33.1,-000.0,0021.29,0008.03,0006.68
2023-07-14 21:53:00,SystemResetWarning,0832.8,4.98,000.00,029.0,027.8,000.0,037.3,030.8,32.5,0000.3,0021.69,0008.06,0006.68
2023-07-14 21:54:00,SystemResetWarning,0832.8,4.99,000.00,029.0,026.6,000.0,037.2,030.6,32.5,0000.5,0022.07,0008.12,0006.67
2023-07-14 21:55:00,SystemResetWarning,0832.9,5.00,000.00,029.0,025.2,000.0,037.1,030.3,32.4,0000.4,0022.29,0008.12,0006.65
2023-07-14 21:56:00,SystemResetWarning,0832.7,5.00,000.00,028.9,024.9,000.0,037.1,030.2,32.9,-000.4,0021.99,0008.15,0006.64
2023-07-14 21:57:00,SystemResetWarning,0832.7,5.01,000.00,028.8,025.2,000.0,037.1,030.1,33.4,-000.8,0022.09,0008.22,0006.64
2023-07-14 21:58:00,SystemResetWarning,0832.6,5.01,000.00,028.8,025.6,000.0,037.1,030.1,33.6,-000.6,0021.81,0008.17,0006.62
2023-07-14 21:59:00,SystemResetWarning,0832.6,4.99,000.00,028.8,026.1,000.0,037.2,030.2,33.2,-000.6,0021.42,0008.18,0006.62
